DECAYED

STARLINK-4172, 53284 (Decayed)

Orbit data source: Space-Track

STARLINK-4172, 53284 was a payload satellite owned by SpaceX/Seattle (US) in LEO that was launched on Sun, 24 Jul 2022 UTC via an FALCON 9 launch vehicle from the Air Force Eastern Test Range (AFETR). Payload-class satellites include a variety of spacecraft equipped with specific instruments for various scientific and technological missions. These include communications satellites like Starlink; space stations such as the ISS; scientific satellites like the Hubble; Earth observation satellites from companies like Planet Labs, Umbra, and HawkEye 360; GPS; miniature CubeSats for education and research; and military/defense satellites.

Not visible in the next 10 days
Identifier
53284, 2022-086AU
Orbit
Decayed
Country
Flag of USUS
Related business
Manufacturer
SpaceX/Seattle
Mission
Decayed Commercial Communications
Bus & Motor
STARLINK, Unknown motor
Mass
297 kg wet, ~275 kg dry
Launch date (UTC)
2022-07-24 (4 years ago)
Launch vehicle
FALCON 9
Launch site
Air Force Eastern Test Range (AFETR)
Object type
Payload
Rocket body
Debris
Shape & HBR
Box + 1 Pan, 10.1 m
Radar Cross Section
13.562 m², Large (>1 m²)

Expand to show TLE details & history
Last TLE update: 1 year ago

TLE from 1 year ago
0 STARLINK-4172
1 53284U 22086AU  24363.87408350  .19471220  12515-4  26589-3 0  9990
2 53284  53.2084 318.1284 0005410 212.1798 196.6595 16.48849817135548
Epoch: 2024-12-28T20:58Z
TLE epoch observation values (Epoch: 2024-12-28T20:58:40.814Z)
Latitude
37.19301°
Longitude
-60.0104°
Altitude
148.746 km
Speed
7.82 km/s
True Right ascension
23h 29m 54s
True Declination
37° 00' 43"
Sunlit
Object was in daylight at epoch
Visualization orbit readout
Latitude
Unknown
Longitude
Unknown
Altitude
Unknown
Speed
Unknown
Apparent Right ascension
Unknown
Apparent Declination
Unknown
Sunlit
N/A
Visualization observer readout
Local Sidereal Time
21:27:58
Azimuth
Unknown
Elevation
Unknown
Doppler factor
Unknown
Orbital elements
Apogee altitude
146.155 km
Perigee altitude
139.099 km
Semi-major axis
6,520.764 km
Eccentricity
0.00054
Inclination
53.2084°
RAAN
318.1284°
Arg. of periapsis
212.1798°
True anomaly
196.64174°
Mean anomaly
196.6595°
Eccentric anomaly
196.65062°
Mean motion
4.12188 °/min
Orbital period
87.34 mins
BSTAR
0.00026589
Loading maneuver chart data...
Computing Atmospheric mass density...
Loading historical data...
Loading historical data...
Loading historical data...
Loading historical data...
Loading historical data...
Loading historical data...
Loading historical data...

Documentation

Showing up to 5 results
|